Location: Bernadets
(43.3537°N, 0.3167°E)
Time: 03:54:32
(UTC+00:00)

CZ-2C R/B - Pass Details

Date: 24 October 2021
Orbit: 784 x 871 km, 98.2° (Epoch: 29 November)

Event Time Altitude Azimuth Distance (km) Brightness Sun altitude
Rises 18:40:32 0° 9° (N) 3,463 5.8 -18.7°
Reaches altitude 10° 18:42:59 10° 6° (N) 2,515 5.1 -19.1°
Maximum altitude 18:48:28 59° 288° (WNW) 982 3.3 -20.1°
Drops below altitude 10° 18:53:49 10° 210° (SSW) 2,455 5.4 -21.1°
Sets 18:56:11 0° 207° (SSW) 3,372 6.1 -21.5°
